Location: Marquette
(46.5440°N, 87.3950°W)
Time: 16:42:34
(UTC-04:00)

Daily predictions for brighter satellites

Satellite Brightness Start Highest point End
(mag) Time Altitude Azimuth Time Altitude Azimuth Time Altitude Azimuth
Cosmos 2233 Rocket 4.1 19:57:39 10° S 20:03:57 80° E 20:10:18 10° N
Spot 2 Rocket 4.0 19:59:21 10° SE 20:04:02 40° ENE 20:08:43 10° N
Cosmos 2056 Rocket 3.6 19:58:40 10° NNW 20:04:08 79° ENE 20:09:34 10° SSE
NOSS 3-2 (C) 4.2 19:59:01 10° S 20:04:14 30° ESE 20:09:50 10° NE
Helios 1B rocket 3.6 20:01:42 10° NE 20:04:58 22° E 20:08:14 10° SSE
Cosmos 1607 4.0 20:01:05 10° SW 20:07:16 90° WNW 20:13:28 10° NE
Intercosmos 25 Rocket 4.4 20:00:57 10° S 20:08:36 87° E 20:13:10 10° N
Cosmos-2242 4.4 20:06:55 10° SE 20:10:02 19° E 20:13:11 10° NE
Cosmos 1484 Rocket 3.3 20:07:36 10° S 20:11:24 64° W 20:15:19 10° NNW
SKYMED 2 3.7 20:09:06 10° NNE 20:13:28 82° WNW 20:17:48 10° SSW
IDEFIX/ARIANE 42P 4.5 20:12:35 10° SSW 20:17:22 35° W 20:22:11 10° NNW
NOAA 12 4.1 20:13:05 10° SSE 20:18:20 77° ENE 20:23:39 10° NNW
Cosmos 1408 Rocket 3.9 20:15:38 10° N 20:19:50 43° ENE 20:23:58 10° SSE
Cosmos 2237 Rocket 2.7 20:20:34 10° SW 20:26:13 66° WNW 20:31:54 10° NNE
ATLAS CENTAUR R/B 2.9 20:22:57 10° NW 20:26:53 36° WSW 20:30:30 10° S
Okean 3 Rocket 4.1 20:26:13 10° NNW 20:30:44 67° W 20:35:14 10° S
Aureole 2 Rocket 2.9 20:26:48 10° S 20:31:09 67° ESE 20:35:24 10° NNE
Cosmos 1766 3.2 20:27:15 10° S 20:31:11 71° E 20:35:11 10° NNE
ATLAS 5 CENTAUR R/B 2.5 20:29:36 10° S 20:33:55 34° ESE 20:38:33 10° NE
Resurs 01 Rocket 1.6 20:29:42 10° SSE 20:34:07 69° ENE 20:38:34 10° N
HJ-1C 3.3 20:31:25 10° SSE 20:34:44 69° ENE 20:38:07 10° N
Resurs 1-3 3.7 20:31:26 10° SSE 20:35:43 56° ENE 20:40:03 10° N
USA 215 3.4 20:33:10 10° ENE 20:39:34 53° SE 20:45:55 10° SSW
Meteor 1-29 3.3 20:40:09 10° NNE 20:43:33 44° E 20:46:56 10° S
SL-16 R/B 2.2 20:39:50 10° SSW 20:45:32 83° ESE 20:51:16 10° NNE
CZ-2D R/B 3.8 20:43:00 12° SE 20:46:16 38° ENE 20:49:54 10° N
Cosmos 192 4.3 20:42:11 10° S 20:47:05 68° ESE 20:52:02 10° NNE
Cosmos 1743 Rocket 4.0 20:43:08 10° N 20:47:24 42° ENE 20:51:26 11° SSE
Cosmos 1953 2.3 20:48:18 10° S 20:52:12 56° E 20:56:07 10° NNE
Nadezhda 4 Rocket 4.0 20:49:00 10° N 20:55:14 59° ENE 21:01:22 10° SSE
ERS-1 Rocket 4.1 20:54:54 20° E 20:56:35 24° ENE 21:00:34 10° N
Helios 1A 3.2 20:54:18 10° S 20:58:29 73° WSW 21:02:41 10° NNW
SeaSat 1 3.3 20:54:26 10° NE 20:58:36 27° ESE 21:02:44 10° SSE
BREEZE-M DEB (TANK) 4.0 20:42:52 10° W 20:59:12 87° S 21:02:28 23° E
ATLAS 3B R/B 4.2 20:53:23 10° WSW 21:00:19 38° NW 21:07:02 10° NNE
GP-B 4.0 20:56:36 10° NNE 21:00:26 28° E 21:01:21 25° ESE
Cosmos 1452 Rocket 3.6 20:55:33 10° NNW 21:00:51 80° WSW 21:06:05 10° SSE
Cosmos 1092 Rocket 4.2 20:55:09 10° N 21:01:11 48° ENE 21:06:37 12° SSE
Cosmos 1805 3.1 20:59:11 10° S 21:03:05 74° E 21:07:03 10° NNE
H-2A R/B 2.8 21:01:10 17° SSE 21:04:06 59° ENE 21:07:56 10° N
Cosmos 2219 Rocket 4.4 21:00:58 10° WSW 21:05:37 26° NW 21:10:18 10° N
Cosmos 1544 3.2 21:02:19 10° S 21:05:58 53° E 21:09:38 10° NNE
CZ-4B DEB 2.7 21:06:22 17° SSE 21:08:49 88° ENE 21:12:06 10° NNW
ALOS 2.2 21:05:31 10° SSE 21:10:11 87° ENE 21:14:54 10° NNW
FENGYUN 3A 3.6 21:08:30 10° SSE 21:13:53 89° ENE 21:19:19 10° NNW
Cosmos 2026 Rocket 4.5 21:11:08 10° N 21:16:43 36° ENE 21:18:46 29° ESE
Meteor 2-12 Rocket 4.4 21:10:40 10° S 21:16:49 85° E 21:23:01 10° N
NOSS 3-2 (A) 3.6 21:10:44 10° SW 21:16:52 81° NW 21:23:40 10° NE
Cosmos 724 4.3 21:11:08 10° SSW 21:16:57 60° ESE 21:22:57 10° NE
Cosmos 1634 Rocket 4.3 21:13:05 10° SSE 21:18:52 42° E 21:24:40 10° NNE
Cosmos 468 4.4 21:14:50 10° S 21:20:02 69° ESE 21:25:16 10° NNE
CZ-4C R/B 3.7 21:18:30 10° WSW 21:23:39 37° NW 21:29:28 10° NNE
Cosmos 1420 Rocket 4.0 21:18:36 10° NNW 21:23:56 88° WSW 21:27:36 21° SSE
Cosmos 1470 2.8 21:24:32 50° E 21:24:34 50° E 21:28:21 10° NNE
Cosmos 2369 Rocket 2.4 21:21:21 10° NNW 21:26:55 54° ENE 21:28:54 37° ESE
H-2A R/B 3.7 21:31:48 21° NE 21:31:48 21° NE 21:34:21 10° NNE
Cosmos 2034 Rocket 4.4 21:24:48 10° SSW 21:31:01 67° W 21:37:22 10° N
Cosmos 1603 3.6 21:27:00 10° SSW 21:32:44 78° ESE 21:38:31 10° NNE
YAOGAN 11 4.4 21:33:16 45° ENE 21:33:17 45° ENE 21:37:23 10° N
USA 186 3.6 21:35:11 18° NNW 21:35:11 18° NNW 21:35:57 10° NNW
Cosmos 1758 4.3 21:29:51 10° SSW 21:33:49 49° WNW 21:37:50 10° N
Cosmos 1943 Rocket 3.0 21:29:27 10° NNW 21:34:28 31° NE 21:35:15 30° ENE
Cosmos 1733 4.0 21:39:32 37° NNE 21:39:32 37° NNE 21:42:04 10° NNE
Helios 1B rocket 4.1 21:36:37 10° N 21:40:23 35° WNW 21:44:08 10° SW
Cosmos 1269 Rocket 3.9 21:36:16 10° SSW 21:41:33 81° ESE 21:46:51 10° NNE
ASTEX 1 3.6 21:38:25 10° N 21:43:21 71° W 21:48:13 10° SSW
Cosmos 1048 Rocket 3.9 21:40:34 10° SSW 21:45:52 76° ESE 21:51:08 10° NNE
ERBS 4.1 21:43:32 10° NW 21:46:04 24° N 21:46:04 24° N
Cosmos-2242 4.3 21:43:09 10° SSW 21:47:18 42° WNW 21:51:30 10° N
Cosmos 1674 3.4 21:47:01 10° NNW 21:50:48 53° W 21:51:56 38° SSW
H-2A R/B 4.2 21:53:25 12° NE 21:53:25 12° NE 21:54:28 10° NNE
Exosat Rocket 4.4 21:46:02 10° NNW 21:52:23 70° ENE 21:55:51 38° SE
Envisat 2.9 21:53:17 61° E 21:53:37 63° ENE 21:58:39 10° N
CENTAUR R/B 2.7 21:48:14 10° S 21:59:44 14° NE 22:00:34 10° NE
Meteor 1-11 4.2 21:48:32 10° N 21:54:19 64° ENE 21:55:14 56° ESE
NOSS 3-2 (C) 4.0 21:48:34 10° SW 21:54:41 61° NW 22:01:28 10° NE
SJ-11-01 4.1 21:54:46 70° SSE 21:55:17 85° ENE 22:00:00 10° NNW
Cosmos 1500 Rocket 4.3 21:52:50 10° NNW 21:57:09 53° W 21:59:06 29° SSW
Cosmos 1842 Rocket 3.8 21:55:05 19° SSW 21:58:07 66° W 22:02:28 10° N
Cosmos 1939 Rocket 3.5 21:59:42 47° N 21:59:42 47° N 22:02:39 10° N
Cosmos 1627 Rocket 4.4 21:54:47 10° N 22:01:00 85° E 22:03:14 43° SSE
Cosmos 2151 3.1 21:56:52 10° N 22:00:39 70° NNW 22:00:39 70° NNW
Meteor 1-16 Rocket 4.3 22:03:41 53° NE 22:03:41 53° NE 22:08:01 10° NNE
Cosmos 1328 4.3 22:00:48 10° NNW 22:03:59 55° NNW 22:03:59 55° NNW
SPOT 5 4.0 22:15:28 29° NNE 22:15:28 29° NNE 22:17:48 10° N
Cosmos 2058 4.0 22:10:06 10° N 22:12:41 38° N 22:12:41 38° N
ATLAS 5 CENTAUR R/B 3.0 22:13:47 10° WSW 22:18:29 43° NW 22:23:36 10° NNE
USA 215 3.7 22:17:38 17° NE 22:22:39 60° NNW 22:29:02 10° WSW
ERS-1 Rocket 3.6 22:34:55 49° WSW 22:35:04 50° W 22:39:58 10° NNW
Cosmos 1110 Rocket 4.3 22:30:09 10° NNW 22:34:54 64° WNW 22:34:54 64° WNW
SeaSat 1 3.2 22:31:32 10° NNE 22:36:19 50° NW 22:41:04 10° SW
Cosmos 1655 Rocket 4.3 22:34:50 10° NNW 22:40:58 61° W 22:42:01 54° SW
ARGOS 4.1 22:43:06 39° NNE 22:43:06 39° NNE 22:46:38 10° N
Cosmos 2279 Rocket 4.0 22:43:54 78° WNW 22:43:54 78° WNW 22:50:05 10° N
Cosmos 2266 Rocket 4.5 22:52:55 10° N 22:57:43 53° N 22:57:43 53° N
H-2A R/B 4.3 23:08:55 24° NW 23:08:55 24° NW 23:10:57 10° NNW
Cosmos 2369 Rocket 3.9 23:06:01 10° NW 23:10:36 26° WSW 23:10:43 26° WSW
Cosmos 1943 4.4 23:14:49 38° NNW 23:14:49 38° NNW 23:19:06 10° NNE
Cosmos 1943 Rocket 3.4 23:13:01 10° NW 23:16:46 37° WNW 23:16:46 37° WNW
Terra 4.3 23:26:57 16° N 23:26:57 16° N 23:27:57 10° N
H-2A R/B 4.1 23:34:04 22° NNW 23:34:04 22° NNW 23:35:48 10° NNW
CENTAUR R/B 3.8 23:38:44 10° WSW 23:46:45 37° N 23:51:38 10° NE
